Tracking 23581 objects as of 27-Jul-2021
HD Live streaming from Space Station
objects crossing your sky now

COSMOS 2491 DEB

Track COSMOS 2491 DEB now!
10-day predictions


NORAD ID: 47111
Int'l Code: 2013-076AG
Perigee: 1,442.6 km
Apogee: 1,519.5 km
Inclination: 82.5 °
Period: 115.4 minutes
Semi major axis: 7852 km
RCS: Unknown
Launch date: December 25, 2013
Source: Commonwealth of Independent States (former USSR) (CIS)
Launch site: PLESETSK MISSILE AND SPACE COMPLEX (PKMTR)

Note: This is SATELLITE DEBRIS
aabbcc
Your satellite tracking list
Your tracking list is empty




NASA's NSSDC Master Catalog

Two Line Element Set (TLE):
1 47111U 13076AG  21207.66906454  .00001351  00000-0  90542-2 0  9995
2 47111  82.4742 198.7801 0048952 345.8445  14.1262 12.47756669 67392
Source of the keplerian elements: AFSPC